FW3572 Weather Reports


Display with metric or nautical units.
time (UTC)temp
F
wind
direction
speed
MPH
gust
MPH
rain 1hr
in
rain 24hr
in
rain mn
in
humidity
%
barometer
mb
20260506181517 83 121 4.0 10.0 0.00 0.00 0.00 100 1018.6
20260506181017 83 166 6.0 11.0 0.00 0.00 0.00 100 1018.7
20260506180517 83 168 7.0 11.0 0.00 0.00 0.00 100 1018.8
20260506180017 84 133 3.0 8.0 0.00 0.00 0.00 100 1018.7
20260506175518 83 84 2.0 10.0 0.00 0.00 0.00 100 1018.8
20260506175019 83 162 4.0 10.0 0.00 0.00 0.00 100 1018.7
20260506174515 83 109 2.0 10.0 0.00 0.00 0.00 100 1018.8
20260506174016 83 117 5.0 10.0 0.00 0.00 0.00 100 1018.9
20260506173516 83 171 4.0 9.0 0.00 0.00 0.00 100 1018.8
20260506173020 82 125 4.0 11.0 0.00 0.00 0.00 100 1018.8
20260506172515 82 132 7.0 11.0 0.00 0.00 0.00 100 1018.8
20260506172014 82 163 6.0 11.0 0.00 0.00 0.00 100 1018.8
20260506171518 82 74 5.0 10.0 0.00 0.00 0.00 100 1018.9
20260506171013 82 162 5.0 10.0 0.00 0.00 0.00 100 1018.9
20260506170514 82 146 4.0 11.0 0.00 0.00 0.00 100 1018.9
20260506170016 82 159 5.0 11.0 0.00 0.00 0.00 100 1019.0
20260506165513 83 126 5.0 10.0 0.00 0.00 0.00 100 1019.0
20260506165013 82 192 4.0 11.0 0.00 0.00 0.00 100 1018.9
20260506164515 82 149 6.0 10.0 0.00 0.00 0.00 100 1019.0
20260506164012 82 150 5.0 9.0 0.00 0.00 0.00 100 1019.0
20260506163512 82 110 4.0 11.0 0.00 0.00 0.00 100 1019.0
20260506163012 81 117 6.0 11.0 0.00 0.00 0.00 100 1019.0
20260506162511 82 132 4.0 9.0 0.00 0.00 0.00 100 1019.1
20260506162012 82 86 5.0 13.0 0.00 0.00 0.00 100 1019.1
20260506161512 82 155 3.0 13.0 0.00 0.00 0.00 100 1019.1
20260506161010 82 119 2.0 11.0 0.00 0.00 0.00 100 1019.2
20260506160516 81 169 6.0 11.0 0.00 0.00 0.00 100 1019.2
20260506160013 81 118 3.0 12.0 0.00 0.00 0.00 100 1019.3
20260506155509 81 112 4.0 11.0 0.00 0.00 0.00 100 1019.4
20260506155009 81 115 4.0 11.0 0.00 0.00 0.00 100 1019.4
20260506154515 81 124 4.0 11.0 0.00 0.00 0.00 100 1019.3
20260506154008 80 134 5.0 11.0 0.00 0.00 0.00 100 1019.4
20260506153508 80 138 7.0 12.0 0.00 0.00 0.00 100 1019.3
20260506153007 80 159 5.0 12.0 0.00 0.00 0.00 100 1019.3
20260506152509 80 156 4.0 11.0 0.00 0.00 0.00 100 1019.3
20260506152009 80 150 7.0 11.0 0.00 0.00 0.00 100 1019.2
20260506151507 80 158 3.0 11.0 0.00 0.00 0.00 100 1019.3
20260506151006 80 117 5.0 11.0 0.00 0.00 0.00 100 1019.2
20260506150506 80 147 4.0 11.0 0.00 0.00 0.00 100 1019.2
20260506150006 79 132 3.0 11.0 0.00 0.00 0.00 100 1019.2
20260506145505 79 160 5.0 11.0 0.00 0.00 0.00 100 1019.2
20260506145005 79 120 6.0 11.0 0.00 0.00 0.00 100 1019.1
20260506144504 80 146 4.0 10.0 0.00 0.00 0.00 100 1019.1
20260506144008 79 139 5.0 10.0 0.00 0.00 0.00 100 1019.0
20260506143503 80 183 3.0 8.0 0.00 0.00 0.00 100 1019.0
20260506143002 80 139 2.0 8.0 0.00 0.00 0.00 100 1018.9
20260506142504 79 117 2.0 9.0 0.00 0.00 0.00 100 1018.9
20260506142004 79 166 6.0 10.0 0.00 0.00 0.00 100 1019.0
20260506141600 78 192 5.0 10.0 0.00 0.00 0.00 100 1019.0
20260506141102 79 171 5.0 10.0 0.00 0.00 0.00 100 1018.9
20260506140600 79 120 3.0 9.0 0.00 0.00 0.00 100 1018.9
20260506140100 78 144 4.0 9.0 0.00 0.00 0.00 100 1019.0
20260506135559 78 163 5.0 8.0 0.00 0.00 0.00 100 1018.9
20260506135059 79 110 2.0 7.0 0.00 0.00 0.00 100 1018.9
20260506134600 79 144 3.0 7.0 0.00 0.00 0.00 100 1018.9
20260506134057 78 125 2.0 7.0 0.00 0.00 0.00 100 1018.8
20260506133557 78 159 2.0 8.0 0.00 0.00 0.00 100 1018.6
20260506133111 78 136 4.0 10.0 0.00 0.00 0.00 100 1018.6
20260506132556 78 123 3.0 8.0 0.00 0.00 0.00 100 1018.7
20260506132056 78 126 3.0 9.0 0.00 0.00 0.00 100 1018.7
20260506131602 78 142 5.0 9.0 0.00 0.00 0.00 100 1018.6
20260506131056 78 142 3.0 7.0 0.00 0.00 0.00 100 1018.6
20260506130554 78 164 4.0 8.0 0.00 0.00 0.00 100 1018.6
20260506130056 77 153 4.0 9.0 0.00 0.00 0.00 100 1018.6
20260506125552 77 153 5.0 9.0 0.00 0.00 0.00 100 1018.6
20260506125052 78 108 2.0 9.0 0.00 0.00 0.00 100 1018.5
20260506124557 77 157 2.0 9.0 0.00 0.00 0.00 100 1018.5
20260506124053 77 153 4.0 10.0 0.00 0.00 0.00 100 1018.5
20260506123550 77 158 5.0 10.0 0.00 0.00 0.00 100 1018.5
20260506123051 77 159 3.0 8.0 0.00 0.00 0.00 100 1018.5
20260506122549 77 162 1.0 7.0 0.00 0.00 0.00 100 1018.5
20260506122047 76 155 2.0 8.0 0.00 0.00 0.00 100 1018.4
20260506121547 76 122 1.0 8.0 0.00 0.00 0.00 100 1018.2
20260506121047 76 159 3.0 7.0 0.00 0.00 0.00 100 1018.2
20260506120549 76 129 1.0 4.0 0.00 0.00 0.00 100 1018.3
20260506120047 75 122 0.0 4.0 0.00 0.00 0.00 100 1018.3
20260506115546 75 121 0.0 0.0 0.00 0.00 0.00 100 1018.3
20260506115046 74 121 0.0 0.0 0.00 0.00 0.00 100 1018.3
20260506114546 74 121 0.0 0.0 0.00 0.00 0.00 100 1018.3
20260506114047 73 121 0.0 0.0 0.00 0.00 0.00 100 1018.3
20260506113545 73 121 0.0 0.0 0.00 0.00 0.00 100 1018.3
20260506113045 73 121 0.0 0.0 0.00 0.00 0.00 100 1018.4
20260506112548 73 121 0.0 0.0 0.00 0.00 0.00 100 1018.4
20260506112044 73 121 0.0 0.0 0.00 0.00 0.00 100 1018.3
20260506111544 73 121 0.0 0.0 0.00 0.00 0.00 100 1018.2
20260506111044 73 121 0.0 0.0 0.00 0.00 0.00 100 1018.1
20260506110544 73 121 0.0 0.0 0.00 0.00 0.00 100 1018.1
20260506110044 73 121 0.0 0.0 0.00 0.00 0.00 100 1018.1
20260506105546 73 121 0.0 0.0 0.00 0.00 0.00 100 1018.0
20260506105046 73 121 0.0 0.0 0.00 0.00 0.00 100 1017.8
20260506104549 73 121 0.0 0.0 0.00 0.00 0.00 100 1017.7
20260506104043 73 121 0.0 0.0 0.00 0.00 0.00 100 1017.6
20260506103542 73 121 0.0 0.0 0.00 0.00 0.00 100 1017.6
20260506103042 73 121 0.0 0.0 0.00 0.00 0.00 100 1017.6
20260506102541 74 121 0.0 0.0 0.00 0.00 0.00 100 1017.6
20260506102041 74 121 0.0 0.0 0.00 0.00 0.00 100 1017.6
20260506101541 74 121 0.0 0.0 0.00 0.00 0.00 100 1017.5
20260506101040 74 121 0.0 0.0 0.00 0.00 0.00 100 1017.4
20260506100540 74 121 0.0 0.0 0.00 0.00 0.00 100 1017.4
20260506100040 74 121 0.0 0.0 0.00 0.00 0.00 100 1017.4
20260506095542 74 121 0.0 0.0 0.00 0.00 0.00 100 1017.4
20260506095042 74 121 0.0 0.0 0.00 0.00 0.00 100 1017.3
20260506094549 74 121 0.0 0.0 0.00 0.00 0.00 100 1017.4
20260506094041 74 121 0.0 0.0 0.00 0.00 0.00 100 1017.4
20260506093540 74 121 0.0 0.0 0.00 0.00 0.00 100 1017.5
20260506093040 74 121 0.0 0.0 0.00 0.00 0.00 100 1017.4
20260506092538 74 121 0.0 0.0 0.00 0.00 0.00 100 1017.4
20260506092038 74 121 0.0 0.0 0.00 0.00 0.00 100 1017.3
20260506091538 74 121 0.0 0.0 0.00 0.00 0.00 100 1017.2
20260506091039 74 121 0.0 0.0 0.00 0.00 0.00 100 1017.2
20260506090537 74 121 0.0 0.0 0.00 0.00 0.00 100 1017.2
20260506090037 74 120 0.0 0.0 0.00 0.00 0.00 100 1017.1
20260506085537 74 121 0.0 0.0 0.00 0.00 0.00 100 1017.1
20260506085037 74 120 0.0 0.0 0.00 0.00 0.00 100 1017.1
20260506084542 74 126 0.0 0.0 0.00 0.00 0.00 100 1017.1
20260506084039 74 126 0.0 0.0 0.00 0.00 0.00 100 1017.3
20260506083538 74 127 0.0 0.0 0.00 0.00 0.00 100 1017.2
20260506083035 74 125 0.0 0.0 0.00 0.00 0.00 100 1017.3
20260506082535 74 125 0.0 0.0 0.00 0.00 0.00 100 1017.3
20260506082035 74 125 0.0 0.0 0.00 0.00 0.00 100 1017.3
20260506081534 74 126 0.0 0.0 0.00 0.00 0.00 100 1017.3
20260506081034 75 126 0.0 3.0 0.00 0.00 0.00 100 1017.3
20260506080534 75 126 1.0 3.0 0.00 0.00 0.00 100 1017.3
20260506073031 75 111 1.0 6.0 0.00 0.00 0.00 100 1017.4
20260506072534 75 123 1.0 6.0 0.00 0.00 0.00 100 1017.5
20260506072030 75 141 2.0 5.0 0.00 0.00 0.00 100 1017.5
20260506071534 75 117 2.0 7.0 0.00 0.00 0.00 100 1017.4
20260506071030 75 116 2.0 7.0 0.00 0.00 0.00 100 1017.5
20260506070530 75 132 1.0 4.0 0.00 0.00 0.00 100 1017.4
20260506062027 75 114 2.0 6.0 0.00 0.00 0.00 100 1017.6
20260506061527 75 121 2.0 5.0 0.00 0.00 0.00 100 1017.6
20260506061029 75 128 1.0 5.0 0.00 0.00 0.00 100 1017.7
20260506060529 75 134 0.0 9.0 0.00 0.00 0.00 100 1017.6
20260506051020 76 114 4.0 11.0 0.00 0.00 0.00 100 1017.9
20260506050520 76 116 4.0 11.0 0.00 0.00 0.00 100 1017.9
20260506045019 76 177 2.0 7.0 0.00 0.00 0.00 100 1018.0
20260506044518 76 136 3.0 9.0 0.00 0.00 0.00 100 1018.0
20260506044017 76 152 3.0 9.0 0.00 0.00 0.00 100 1017.9
20260506043517 76 107 2.0 11.0 0.00 0.00 0.00 100 1018.0
20260506043016 76 130 3.0 11.0 0.00 0.00 0.00 100 1017.9
20260506042516 76 111 3.0 8.0 0.00 0.00 0.00 100 1018.0
20260506042016 76 119 1.0 11.0 0.00 0.00 0.00 100 1018.2
20260506041516 76 121 4.0 11.0 0.00 0.00 0.00 100 1018.1
20260506041014 76 112 2.0 8.0 0.00 0.00 0.00 100 1018.2
20260506040513 76 108 2.0 9.0 0.00 0.00 0.00 100 1018.3
20260506040013 76 122 3.0 9.0 0.00 0.00 0.00 100 1018.2
20260506035518 76 80 3.0 9.0 0.00 0.00 0.00 100 1018.3
20260506035012 76 116 2.0 9.0 0.00 0.00 0.00 100 1018.3
20260506034512 76 105 3.0 8.0 0.00 0.00 0.00 100 1018.4
20260506034011 76 84 3.0 8.0 0.00 0.00 0.00 100 1018.5
20260506033510 76 112 2.0 8.0 0.00 0.00 0.00 100 1018.4
20260506033012 76 104 2.0 8.0 0.00 0.00 0.00 100 1018.3
20260506032510 76 114 3.0 7.0 0.00 0.00 0.00 100 1018.3
20260506032012 76 110 3.0 8.0 0.00 0.00 0.00 100 1018.3
20260506031511 76 108 3.0 8.0 0.00 0.00 0.00 100 1018.4
20260506031012 76 131 2.0 8.0 0.00 0.00 0.00 100 1018.3
20260506030511 76 157 2.0 9.0 0.00 0.00 0.00 100 1018.3
20260506030019 76 96 3.0 10.0 0.00 0.00 0.00 100 1018.3
20260506025509 76 123 4.0 10.0 0.00 0.00 0.00 100 1018.2
20260506025009 76 101 2.0 7.0 0.00 0.00 0.00 100 1018.2
20260506024522 76 115 2.0 9.0 0.00 0.00 0.00 100 1018.1
20260506024009 76 109 4.0 10.0 0.00 0.00 0.00 100 1018.1
20260506023509 76 127 3.0 10.0 0.00 0.00 0.00 100 1018.0
20260506023009 76 92 3.0 8.0 0.00 0.00 0.00 100 1018.0
20260506022508 76 103 2.0 8.0 0.00 0.00 0.00 100 1018.1
20260506022008 76 99 3.0 8.0 0.00 0.00 0.00 100 1018.1
20260506021508 76 112 2.0 10.0 0.00 0.00 0.00 100 1018.0
20260506021009 77 84 3.0 10.0 0.00 0.00 0.00 100 1018.1
20260506020508 76 88 1.0 7.0 0.00 0.00 0.00 100 1017.9
20260506020009 77 149 2.0 7.0 0.00 0.00 0.00 100 1017.9
20260506015507 77 137 2.0 8.0 0.00 0.00 0.00 100 1017.8
20260506015008 77 128 2.0 8.0 0.00 0.00 0.00 100 1017.8
20260506014507 76 96 3.0 8.0 0.00 0.00 0.00 100 1017.7
20260506014007 77 153 2.0 10.0 0.00 0.00 0.00 100 1017.7
20260506013506 77 110 3.0 10.0 0.00 0.00 0.00 100 1017.6
20260506013008 77 103 2.0 7.0 0.00 0.00 0.00 100 1017.5
20260506012506 77 140 2.0 7.0 0.00 0.00 0.00 100 1017.5
20260506012006 77 54 2.0 6.0 0.00 0.00 0.00 100 1017.4
20260506011506 77 130 2.0 6.0 0.00 0.00 0.00 100 1017.3
20260506011007 77 103 2.0 7.0 0.00 0.00 0.00 100 1017.3
20260506010506 77 113 2.0 7.0 0.00 0.00 0.00 100 1017.2
20260506010006 77 102 2.0 9.0 0.00 0.00 0.00 100 1017.2
20260506005608 77 128 2.0 9.0 0.00 0.00 0.00 100 1017.1
20260506005006 77 90 3.0 8.0 0.00 0.00 0.00 100 1017.1
20260506004505 77 93 2.0 7.0 0.00 0.00 0.00 100 1017.1
20260506004005 77 101 2.0 7.0 0.00 0.00 0.00 100 1017.0
20260506003504 77 47 3.0 7.0 0.00 0.00 0.00 100 1016.9
20260506003012 77 109 2.0 5.0 0.00 0.00 0.00 100 1016.9
20260506002504 77 76 1.0 5.0 0.00 0.00 0.00 100 1016.9
20260506002004 77 103 1.0 6.0 0.00 0.00 0.00 100 1016.9
20260506001504 77 148 3.0 8.0 0.00 0.00 0.00 100 1016.9
20260506001004 77 115 2.0 8.0 0.00 0.00 0.00 100 1016.8
20260506000504 77 124 3.0 9.0 0.00 0.00 0.00 100 1016.8
20260506000004 77 35 2.0 9.0 0.00 0.00 0.00 100 1016.8
20260505235503 77 107 2.0 9.0 0.00 0.00 0.00 100 1016.7
20260505235004 77 130 1.0 9.0 0.00 0.00 0.00 100 1016.7
20260505234503 77 36 4.0 9.0 0.00 0.00 0.00 100 1016.7
20260505234005 77 136 2.0 9.0 0.00 0.00 0.00 100 1016.7
20260505233502 77 122 4.0 8.0 0.00 0.00 0.00 100 1016.8
20260505233002 77 107 1.0 9.0 0.00 0.00 0.00 100 1016.8
20260505232502 78 119 2.0 9.0 0.00 0.00 0.00 100 1016.9
20260505232002 78 142 1.0 8.0 0.00 0.00 0.00 100 1016.8
20260505231503 78 360 2.0 8.0 0.00 0.00 0.00 100 1016.9
20260505231002 78 44 1.0 8.0 0.00 0.00 0.00 100 1016.9
20260505230502 78 106 2.0 8.0 0.00 0.00 0.00 100 1017.0
20260505230002 78 118 2.0 10.0 0.00 0.00 0.00 100 1017.1
20260505225504 78 122 2.0 10.0 0.00 0.00 0.00 100 1017.1
20260505225002 78 105 2.0 10.0 0.00 0.00 0.00 100 1017.2
20260505224502 79 15 3.0 10.0 0.00 0.00 0.00 100 1017.2
20260505224001 79 35 1.0 9.0 0.00 0.00 0.00 100 1017.2
20260505223500 79 63 3.0 10.0 0.00 0.00 0.00 100 1017.1
20260505223000 79 32 3.0 12.0 0.00 0.00 0.00 100 1017.0
20260505222602 78 132 2.0 12.0 0.00 0.00 0.00 100 1017.0
20260505222100 78 129 4.0 9.0 0.00 0.00 0.00 100 1017.0
20260505221602 79 109 4.0 11.0 0.00 0.00 0.00 100 1017.0
20260505221100 79 42 3.0 11.0 0.00 0.00 0.00 100 1017.0
20260505220600 80 38 2.0 10.0 0.00 0.00 0.00 100 1017.1
20260505215600 79 101 2.0 10.0 0.00 0.00 0.00 100 1016.9
20260505215100 80 23 3.0 10.0 0.00 0.00 0.00 100 1016.9
20260505214603 79 57 3.0 12.0 0.00 0.00 0.00 100 1016.9
20260505214100 79 146 3.0 12.0 0.00 0.00 0.00 100 1016.8
20260505213558 79 126 3.0 8.0 0.00 0.00 0.00 100 1016.7
20260505213105 80 49 3.0 8.0 0.00 0.00 0.00 100 1016.7
20260505212601 80 46 2.0 11.0 0.00 0.00 0.00 100 1016.9
20260505212059 79 5 3.0 9.0 0.00 0.00 0.00 100 1016.9
20260505211559 79 138 5.0 11.0 0.00 0.00 0.00 100 1016.7
20260505211058 80 97 3.0 11.0 0.00 0.00 0.00 100 1016.9
20260505210558 80 117 2.0 12.0 0.00 0.00 0.00 100 1016.9
20260505210058 80 142 3.0 12.0 0.00 0.00 0.00 100 1016.9
20260505205558 80 130 5.0 12.0 0.00 0.00 0.00 100 1016.8
20260505205058 80 339 3.0 11.0 0.00 0.00 0.00 100 1016.8
20260505204557 80 98 3.0 11.0 0.00 0.00 0.00 100 1016.8
20260505204056 81 148 3.0 10.0 0.00 0.00 0.00 100 1016.8
20260505203556 81 24 2.0 11.0 0.00 0.00 0.00 100 1016.8
20260505203104 80 12 3.0 11.0 0.00 0.00 0.00 100 1016.9
20260505202556 81 149 1.0 9.0 0.00 0.00 0.00 100 1016.9
20260505202058 80 116 4.0 11.0 0.00 0.00 0.00 100 1016.9
20260505201557 81 17 4.0 13.0 0.00 0.00 0.00 100 1016.8
20260505201055 81 43 4.0 13.0 0.00 0.00 0.00 100 1016.8
20260505200555 81 71 4.0 11.0 0.00 0.00 0.00 100 1016.9
20260505200057 80 144 4.0 10.0 0.00 0.00 0.00 100 1017.0
20260505195558 80 102 3.0 13.0 0.00 0.00 0.00 100 1017.0
20260505195055 81 88 5.0 13.0 0.00 0.00 0.00 100 1017.1
20260505194555 81 132 4.0 10.0 0.00 0.00 0.00 100 1017.1
20260505194054 81 110 2.0 10.0 0.00 0.00 0.00 100 1017.2
20260505193555 80 163 3.0 10.0 0.00 0.00 0.00 100 1017.2
20260505193153 80 113 4.0 9.0 0.00 0.00 0.00 100 1017.3
20260505192553 81 67 3.0 10.0 0.00 0.00 0.00 100 1017.3
20260505192054 81 73 3.0 10.0 0.00 0.00 0.00 100 1017.3
20260505191609 81 65 3.0 11.0 0.00 0.00 0.00 100 1017.2
20260505191053 80 96 6.0 11.0 0.00 0.00 0.00 100 1017.4
20260505190552 81 90 3.0 9.0 0.00 0.00 0.00 100 1017.4
20260505190055 80 135 3.0 9.0 0.00 0.00 0.00 100 1017.5
20260505185555 80 121 3.0 9.0 0.00 0.00 0.00 100 1017.7
20260505185052 81 39 2.0 10.0 0.00 0.00 0.00 100 1017.7
20260505184552 81 5 4.0 10.0 0.00 0.00 0.00 100 1017.7
20260505184052 81 123 2.0 13.0 0.00 0.00 0.00 100 1017.8
20260505183550 81 126 3.0 13.0 0.00 0.00 0.00 100 1017.7
20260505183051 80 121 4.0 10.0 0.00 0.00 0.00 100 1017.7
20260505182551 80 134 4.0 11.0 0.00 0.00 0.00 100 1017.8
20260505182056 80 118 3.0 11.0 0.00 0.00 0.00 100 1017.8